Вернуться в каталог

COSMOS 1196

АктивенНавигацияLEO
NORAD 11879·PAYLOAD·🇷🇺 Russia

Запущен Jul 9, 1980 с Plesetsk Cosmodrome

Loading…

Ближайшие Пролёты (ближайшие 24 часа)

TLE

СвежийSource: Space-Track

Эпоха: Sep 14, 2026, 12:15 UTC

1 11879U 80058E   26257.51054877 -.00000022  00000-0 -42884-4 0  9992
2 11879  74.0148 265.6150 0004033  91.3032 344.1239 12.48411523583569

Отслеживайте COSMOS 1196 в реальном времени с AllMySat

Download on the App Store